Temp
-15 -14 -13 -15 -14 -13 -13 -12 -12 -12 -13 -13 -14 -14 -13 -13 -15 -14 -15 -14 -14 -14 -14 -14 -15 -14 -13 -14 -14 -13 -13 -13 -13 -13 -13 -12 -12 -12 -12 -12 -12 -12 -12 -12
-15 -14 -15 -14 -14 -14 -14 -13 -12 -13 -14 -14 -14 -13 -13 -14 -14 -14 -15 -14 -14 -14 -14 -14 -15 -15 -14 -14 -14 -13 -13 -13 -13 -13 -13 -13 -12 -12 -12 -12 -12 -12 -12 -12
-15 -15 -16 -15 -15 -14 -14 -13 -13 -13 -13 -14 -15 -13 -13 -14 -14 -15 -15 -14 -14 -14 -14 -15 -15 -15 -14 -14 -13 -13 -13 -13 -13 -13 -13 -13 -12 -12 -12 -12 -12 -12 -12 -12
-16 -16 -15 -16 -15 -16 -14 -15 -14 -14 -14 -14 -15 -13 -13 -13 -14 -15 -14 -14 -14 -14 -13 -15 -15 -15 -14 -14 -13 -13 -13 -13 -13 -13 -13 -13 -12 -12 -12 -12 -12 -12 -12 -12
-16 -16 -16 -16 -16 -16 -15 -15 -15 -15 -14 -15 -14 -14 -12 -14 -14 -14 -15 -14 -14 -12 -13 -15 -16 -15 -14 -14 -13 -13 -13 -13 -13 -13 -13 -13 -12 -13 -12 -12 -12 -12 -12 -12
-17 -16 -17 -17 -16 -16 -16 -16 -16 -16 -15 -15 -15 -14 -12 -14 -14 -15 -15 -15 -14 -13 -14 -15 -16 -15 -14 -14 -14 -13 -13 -13 -13 -13 -13 -13 -13 -13 -12 -12 -12 -12 -12 -12
-17 -17 -17 -17 -17 -17 -16 -16 -16 -15 -15 -14 -14 -14 -12 -14 -14 -15 -15 -15 -15 -14 -14 -14 -15 -15 -15 -14 -14 -14 -14 -13 -14 -13 -13 -13 -13 -13 -13 -13 -12 -13 -12 -13
-18 -18 -18 -17 -17 -17 -17 -16 -16 -16 -15 -14 -15 -14 -13 -15 -15 -15 -15 -15 -15 -14 -15 -14 -15 -15 -15 -15 -14 -14 -14 -14 -14 -14 -13 -13 -13 -12 -12 -13 -13 -13 -13 -13
-18 -18 -18 -18 -18 -17 -17 -16 -16 -16 -15 -15 -15 -15 -16 -14 -15 -15 -15 -15 -14 -14 -14 -15 -15 -15 -15 -15 -15 -14 -14 -14 -14 -14 -14 -14 -13 -13 -12 -12 -13 -13 -13 -13
-19 -19 -18 -18 -18 -17 -17 -17 -16 -16 -16 -17 -16 -16 -15 -14 -15 -14 -14 -14 -14 -14 -14 -15 -15 -15 -14 -15 -14 -14 -14 -14 -14 -14 -14 -14 -14 -13 -13 -13 -13 -14 -14 -14
-19 -19 -19 -18 -18 -18 -17 -17 -16 -17 -17 -18 -17 -15 -15 -15 -14 -14 -14 -14 -15 -15 -15 -15 -15 -15 -15 -15 -14 -14 -14 -14 -14 -14 -14 -14 -14 -14 -14 -14 -14 -14 -14 -14
-20 -19 -19 -19 -19 -18 -17 -18 -18 -18 -18 -18 -17 -16 -16 -15 -14 -13 -13 -14 -15 -14 -15 -15 -15 -15 -15 -15 -14 -14 -14 -14 -15 -15 -15 -15 -14 -14 -14 -14 -14 -14 -14 -14
-21 -20 -19 -19 -19 -18 -18 -18 -19 -19 -18 -18 -17 -15 -15 -15 -15 -14 -15 -15 -15 -15 -14 -15 -15 -15 -14 -14 -14 -14 -14 -14 -14 -14 -15 -15 -15 -15 -15 -15 -15 -15 -15 -14
-21 -21 -20 -19 -19 -19 -18 -19 -19 -19 -18 -17 -17 -16 -15 -15 -15 -15 -15 -15 -15 -14 -14 -15 -15 -14 -13 -14 -14 -14 -14 -14 -14 -14 -14 -14 -14 -15 -15 -15 -15 -15 -15 -15
-22 -21 -20 -19 -19 -19 -19 -19 -19 -18 -18 -17 -16 -15 -15 -15 -15 -15 -15 -15 -14 -14 -14 -14 -15 -14 -15 -14 -14 -14 -14 -14 -14 -14 -14 -14 -14 -14 -14 -15 -15 -15 -15 -15
-22 -21 -20 -20 -19 -19 -18 -19 -19 -18 -18 -17 -16 -16 -16 -15 -15 -15 -15 -14 -14 -14 -14 -14 -15 -15 -14 -14 -14 -15 -15 -15 -15 -15 -15 -15 -15 -15 -15 -15 -15 -15 -16 -16
-23 -22 -21 -20 -20 -19 -18 -19 -19 -18 -18 -18 -16 -16 -16 -16 -15 -15 -15 -15 -14 -15 -14 -14 -15 -15 -14 -15 -15 -15 -15 -15 -15 -15 -15 -16 -15 -15 -15 -15 -16 -16 -16 -16
-23 -22 -21 -19 -20 -19 -19 -18 -19 -19 -18 -18 -17 -16 -16 -17 -16 -15 -15 -15 -15 -15 -15 -14 -14 -15 -14 -14 -15 -15 -15 -15 -15 -15 -15 -15 -15 -15 -15 -15 -15 -15 -15 -15
-22 -22 -21 -20 -19 -19 -19 -19 -18 -18 -18 -17 -17 -16 -17 -16 -16 -15 -15 -15 -15 -15 -14 -15 -14 -14 -15 -14 -15 -15 -15 -15 -15 -16 -16 -16 -15 -15 -16 -16 -16 -15 -15 -15
-22 -21 -21 -20 -19 -19 -20 -18 -19 -18 -17 -17 -16 -17 -17 -17 -16 -16 -15 -15 -15 -15 -15 -15 -15 -15 -15 -15 -15 -16 -16 -16 -16 -15 -16 -16 -16 -16 -16 -16 -16 -16 -16 -16
-22 -21 -20 -20 -19 -19 -20 -19 -19 -18 -18 -18 -17 -17 -16 -16 -16 -16 -16 -15 -15 -15 -15 -15 -15 -15 -16 -16 -16 -16 -16 -15 -15 -15 -15 -16 -16 -16 -16 -16 -16 -16 -16 -16
-23 -22 -22 -21 -20 -20 -20 -20 -19 -19 -19 -18 -17 -17 -18 -17 -16 -16 -16 -15 -15 -15 -15 -15 -15 -15 -16 -16 -16 -16 -16 -16 -17 -17 -16 -16 -16 -16 -16 -16 -17 -17 -17 -17
-23 -23 -23 -23 -21 -20 -20 -20 -20 -20 -19 -19 -18 -18 -17 -17 -17 -17 -16 -16 -16 -16 -16 -16 -16 -16 -16 -17 -17 -17 -17 -17 -17 -17 -17 -17 -17 -17 -17 -17 -17 -16 -16 -16
-23 -22 -23 -23 -22 -21 -20 -20 -21 -20 -20 -19 -19 -18 -18 -17 -17 -17 -17 -17 -16 -17 -17 -16 -16 -17 -17 -17 -17 -17 -17 -17 -17 -17 -17 -17 -17 -17 -17 -17 -17 -17 -17 -17
-23 -23 -23 -23 -23 -22 -21 -21 -21 -20 -20 -20 -19 -19 -19 -18 -18 -17 -17 -17 -17 -17 -17 -17 -17 -17 -17 -17 -17 -18 -17 -18 -18 -17 -17 -17 -17 -17 -17 -17 -17 -18 -18 -19
-23 -22 -23 -23 -23 -22 -21 -21 -21 -21 -20 -20 -20 -20 -19 -19 -19 -19 -19 -18 -18 -18 -18 -18 -18 -18 -18 -18 -18 -18 -18 -18 -18 -18 -18 -18 -17 -17 -18 -18 -19 -19 -19 -19
Height
5667 5670 5673 5673 5674 5676 5677 5676 5679 5680 5678 5674 5673 5673 5677 5677 5675 5683 5688 5692 5697 5703 5704 5704 5704 5704 5705 5705 5704 5703 5702 5700 5697 5694 5694 5693 5693 5691 5695 5696 5700 5704 5710 5718
5659 5662 5663 5663 5664 5666 5667 5667 5670 5669 5667 5662 5662 5663 5665 5668 5672 5674 5680 5687 5692 5696 5700 5698 5699 5699 5701 5701 5701 5700 5700 5697 5694 5692 5692 5692 5691 5688 5692 5695 5699 5704 5709 5715
5648 5652 5654 5655 5656 5656 5657 5658 5658 5658 5655 5654 5650 5649 5655 5661 5664 5667 5675 5681 5685 5690 5693 5693 5694 5695 5697 5697 5697 5696 5696 5695 5692 5690 5690 5690 5689 5687 5689 5694 5698 5702 5708 5712
5640 5642 5644 5646 5647 5647 5649 5650 5649 5648 5646 5646 5640 5637 5647 5653 5656 5659 5670 5674 5679 5683 5686 5686 5689 5690 5694 5693 5693 5693 5694 5693 5690 5689 5689 5689 5689 5688 5688 5691 5697 5702 5706 5712
5632 5634 5635 5637 5638 5639 5643 5640 5641 5639 5637 5634 5635 5627 5640 5643 5649 5655 5664 5670 5674 5677 5678 5682 5685 5687 5689 5690 5690 5691 5691 5691 5689 5688 5688 5689 5689 5689 5688 5692 5694 5700 5705 5708
5622 5625 5627 5628 5629 5630 5633 5632 5632 5630 5627 5625 5628 5626 5632 5639 5646 5652 5659 5664 5668 5670 5673 5675 5679 5681 5684 5687 5687 5688 5688 5689 5688 5688 5688 5688 5688 5688 5688 5688 5693 5695 5700 5705
5611 5615 5618 5621 5621 5622 5625 5624 5624 5623 5619 5620 5623 5622 5628 5636 5643 5648 5651 5656 5662 5666 5669 5670 5673 5677 5680 5684 5685 5686 5686 5686 5687 5687 5687 5687 5687 5687 5689 5691 5692 5695 5698 5702
5603 5608 5610 5611 5613 5615 5617 5617 5618 5615 5612 5614 5616 5614 5625 5634 5639 5642 5645 5651 5656 5660 5665 5667 5669 5673 5676 5680 5682 5684 5684 5684 5685 5686 5686 5687 5687 5686 5686 5687 5690 5694 5696 5697
5595 5599 5602 5603 5605 5608 5609 5612 5610 5607 5605 5605 5608 5615 5622 5624 5630 5631 5637 5645 5652 5656 5662 5665 5666 5668 5672 5676 5678 5681 5682 5683 5684 5685 5686 5687 5686 5686 5685 5684 5687 5691 5694 5697
5587 5592 5596 5597 5599 5600 5602 5604 5604 5601 5600 5600 5605 5612 5614 5617 5622 5629 5634 5642 5649 5653 5657 5660 5661 5663 5668 5671 5674 5677 5680 5682 5683 5683 5684 5686 5686 5686 5686 5685 5686 5689 5691 5693
5579 5584 5589 5591 5592 5594 5597 5597 5596 5595 5595 5597 5603 5606 5609 5611 5619 5628 5632 5637 5644 5650 5654 5656 5656 5659 5663 5667 5670 5673 5676 5679 5681 5682 5682 5682 5683 5684 5685 5686 5687 5689 5691 5692
5573 5577 5582 5584 5585 5587 5589 5590 5590 5590 5592 5593 5597 5602 5604 5607 5616 5621 5626 5633 5640 5644 5649 5650 5652 5655 5658 5663 5666 5668 5671 5674 5676 5677 5679 5680 5682 5682 5683 5684 5686 5688 5690 5691
5566 5569 5573 5577 5580 5580 5582 5584 5585 5585 5586 5587 5591 5597 5599 5604 5610 5616 5621 5627 5634 5638 5641 5645 5648 5649 5653 5657 5660 5662 5666 5669 5671 5672 5673 5675 5676 5678 5680 5681 5682 5684 5686 5687
5561 5563 5565 5569 5573 5575 5576 5577 5577 5579 5578 5580 5583 5591 5594 5599 5605 5610 5616 5620 5626 5632 5637 5641 5644 5645 5649 5653 5655 5658 5661 5663 5665 5668 5670 5671 5672 5673 5675 5677 5678 5679 5680 5681
5555 5557 5559 5562 5564 5569 5569 5570 5571 5572 5575 5571 5581 5584 5585 5593 5598 5606 5610 5614 5619 5626 5632 5637 5641 5642 5646 5649 5651 5654 5658 5661 5663 5665 5666 5667 5669 5671 5672 5672 5673 5675 5675 5676
5550 5552 5554 5557 5558 5561 5563 5566 5566 5566 5569 5566 5574 5577 5582 5589 5594 5601 5602 5609 5614 5619 5626 5631 5636 5638 5641 5644 5646 5649 5652 5654 5656 5658 5660 5661 5662 5665 5666 5668 5669 5670 5670 5670
5545 5546 5548 5550 5553 5555 5560 5560 5560 5560 5563 5563 5565 5575 5580 5583 5589 5596 5599 5603 5609 5614 5620 5625 5630 5633 5635 5639 5641 5644 5646 5648 5650 5652 5653 5655 5656 5657 5658 5660 5662 5663 5663 5664
5539 5540 5542 5543 5547 5550 5552 5554 5556 5555 5558 5560 5563 5570 5574 5578 5585 5590 5595 5598 5602 5609 5612 5619 5624 5628 5631 5634 5636 5639 5641 5642 5643 5645 5647 5648 5649 5651 5652 5653 5653 5654 5654 5654
5534 5535 5536 5537 5542 5546 5548 5549 5551 5551 5555 5555 5557 5562 5569 5575 5581 5585 5588 5593 5598 5601 5606 5612 5616 5620 5623 5626 5630 5632 5634 5636 5637 5638 5639 5641 5642 5644 5644 5644 5645 5646 5645 5645
5528 5530 5532 5534 5536 5539 5543 5545 5546 5546 5549 5551 5554 5556 5563 5568 5575 5581 5585 5588 5594 5597 5599 5603 5608 5613 5616 5618 5622 5625 5627 5629 5629 5629 5630 5631 5632 5633 5634 5634 5634 5634 5634 5634
5523 5525 5528 5529 5530 5535 5539 5542 5543 5545 5549 5550 5551 5553 5557 5562 5569 5573 5577 5579 5585 5589 5592 5597 5600 5603 5606 5608 5611 5613 5615 5616 5617 5618 5620 5621 5622 5623 5622 5622 5622 5621 5621 5621
5521 5522 5523 5523 5525 5531 5534 5539 5539 5541 5541 5545 5549 5551 5556 5557 5561 5565 5569 5573 5578 5581 5586 5589 5592 5594 5596 5599 5601 5604 5605 5606 5606 5607 5608 5610 5610 5611 5611 5610 5610 5610 5609 5608
5520 5519 5519 5519 5520 5525 5529 5534 5536 5537 5539 5541 5543 5545 5549 5553 5557 5560 5564 5567 5570 5575 5578 5581 5583 5586 5588 5589 5591 5593 5595 5596 5597 5598 5598 5599 5599 5599 5599 5599 5599 5598 5597 5595
5514 5514 5516 5515 5516 5520 5526 5530 5532 5535 5537 5538 5541 5542 5545 5549 5552 5554 5558 5560 5562 5565 5568 5572 5574 5577 5579 5581 5582 5584 5585 5586 5586 5585 5584 5585 5586 5585 5584 5582 5580 5579 5578 5577
5509 5512 5513 5514 5517 5520 5524 5527 5529 5532 5534 5536 5538 5539 5541 5543 5546 5549 5552 5554 5557 5559 5562 5565 5567 5569 5570 5572 5573 5573 5574 5575 5575 5574 5574 5574 5574 5574 5572 5570 5568 5566 5564 5563
5509 5510 5513 5514 5517 5520 5524 5526 5527 5528 5530 5531 5533 5536 5538 5541 5543 5545 5547 5549 5551 5553 5555 5557 5559 5560 5561 5561 5562 5563 5563 5563 5563 5563 5562 5561 5560 5560 5558 5556 5554 5552 5549 5547
Wind_Speed
40 42 41 37 39 40 41 42 40 41 44 50 50 46 37 41 37 37 35 39 37 35 33 24 21 23 16 18 19 18 15 16 15 10 13 15 15 18 24 20 19 38 47 36
41 39 37 40 39 40 41 40 39 41 43 49 48 45 38 40 34 39 35 38 37 36 31 19 22 18 15 17 19 14 13 11 12 12 14 19 17 16 28 24 19 40 41 36
39 36 36 38 39 40 39 38 39 40 44 47 48 46 35 35 35 37 32 34 39 31 26 18 23 15 17 16 17 13 12 8 9 11 12 11 9 14 24 28 22 28 42 35
37 36 37 38 39 38 36 34 37 39 44 44 46 48 38 38 36 37 30 34 35 34 22 18 21 18 17 15 15 12 11 6 6 7 8 7 6 9 24 33 30 26 27 32
35 35 36 35 35 33 29 33 35 39 41 42 40 45 28 33 35 37 34 33 38 34 18 19 19 18 17 15 12 12 10 6 3 4 7 9 7 9 14 28 33 30 31 30
35 35 33 33 32 32 31 34 33 34 40 40 30 38 28 32 32 28 33 36 32 23 19 23 22 21 17 16 12 10 10 8 5 4 5 5 7 9 10 19 25 34 31 30
36 35 33 31 31 30 29 30 32 34 42 33 27 34 25 25 29 28 35 34 24 24 24 27 22 20 18 16 12 10 9 6 6 6 6 6 7 6 13 18 23 27 30 31
36 33 32 32 30 29 29 31 32 37 40 33 28 35 24 22 30 27 26 26 31 27 20 27 22 17 18 15 13 12 8 5 3 4 5 6 7 7 8 18 20 21 22 20
35 32 32 33 31 30 31 30 33 39 38 32 27 31 23 24 36 36 32 32 25 21 24 19 17 15 18 16 15 15 11 8 6 5 5 5 4 4 5 13 21 21 20 19
35 30 29 29 29 30 29 30 33 35 32 32 26 19 15 25 40 36 33 29 23 21 23 21 18 14 15 17 15 16 14 12 9 7 9 8 6 4 2 3 16 18 19 18
34 32 26 27 29 30 30 30 32 28 32 31 18 20 15 24 35 33 29 30 22 24 23 18 15 18 18 22 17 16 15 14 12 10 9 8 8 7 5 6 8 11 12 12
30 27 24 27 30 29 29 27 27 25 24 29 27 23 16 22 25 33 36 30 26 26 20 16 18 23 25 24 22 20 18 17 15 14 13 11 10 9 7 8 10 10 11 12
25 26 27 28 26 27 26 26 24 28 32 36 33 23 16 22 23 32 35 33 30 30 26 22 23 26 24 26 26 25 23 21 18 17 15 14 14 14 13 11 11 13 14 14
24 25 27 28 26 26 25 25 25 25 31 36 40 27 34 30 26 34 43 35 36 34 29 26 27 28 24 26 28 27 27 25 23 22 20 19 17 15 17 17 17 16 17 17
27 27 27 29 29 28 27 25 30 31 27 38 34 34 37 27 40 31 39 40 41 33 33 27 26 26 23 26 26 26 25 23 23 22 22 22 22 20 19 19 21 21 21 21
28 29 30 30 31 27 29 29 31 34 30 39 36 39 41 30 36 39 49 44 40 35 34 33 31 26 28 29 28 29 30 30 28 27 26 25 24 23 24 24 24 23 24 26
28 29 30 28 26 26 26 30 33 39 31 39 39 35 40 44 35 22 40 44 43 43 38 37 33 28 27 26 23 19 22 24 24 28 31 31 31 29 27 27 28 29 30 31
29 30 29 29 25 25 24 23 27 25 37 33 28 30 39 44 23 30 22 35 37 37 40 39 34 33 29 29 27 25 24 25 27 26 26 30 31 30 31 34 35 35 36 36
29 28 28 28 24 22 20 19 16 17 24 32 30 29 35 40 29 25 27 36 40 38 42 39 39 39 33 33 34 31 29 26 29 32 34 34 35 35 35 37 37 40 42 44
24 26 27 26 25 24 21 21 12 18 16 10 24 27 26 32 35 24 25 35 39 47 50 46 44 40 35 35 37 35 34 36 36 36 40 42 42 43 44 43 44 46 46 45
23 26 27 30 32 25 24 24 5 9 15 17 21 24 22 27 37 32 37 42 38 40 45 45 41 42 40 37 38 39 38 37 35 32 35 40 44 48 51 47 47 43 49 54
16 21 26 31 34 27 29 17 4 5 10 13 22 17 22 31 37 40 35 38 36 38 41 44 43 40 36 37 37 37 37 35 34 33 35 38 39 39 40 40 40 42 43 44
6 11 13 24 25 25 31 16 6 14 17 20 20 19 22 30 27 32 35 34 35 33 32 34 36 38 38 37 38 37 38 37 33 32 34 38 41 41 41 42 44 46 49 51
17 15 13 18 16 24 31 17 4 16 11 22 22 26 29 29 36 32 35 35 37 35 32 35 36 37 37 36 38 38 39 39 37 37 38 41 43 45 48 51 52 53 52 52
6 12 8 7 9 19 17 13 10 12 9 9 24 23 25 27 34 39 39 36 35 36 36 36 37 36 37 38 38 38 40 44 46 46 46 48 50 53 54 56 56 52 51 50
5 12 12 14 7 12 11 15 17 15 15 15 17 18 22 24 27 26 24 28 35 35 33 35 36 37 38 38 40 42 46 47 51 54 55 57 58 57 56 54 53 55 56 57
Wind_Direction
248 252 253 252 253 257 261 265 271 276 278 277 280 273 266 248 246 240 239 237 237 241 244 243 246 264 260 258 265 277 288 293 285 263 249 267 270 242 210 220 217 187 187 187
248 249 250 252 254 257 260 267 275 275 280 280 283 267 267 242 242 231 229 237 237 238 238 235 241 250 246 252 264 270 282 300 283 275 262 268 265 240 203 206 200 195 198 199
248 248 248 251 253 256 262 269 273 277 278 281 275 262 256 234 237 223 227 229 236 239 225 220 238 233 231 246 257 263 279 300 292 270 271 257 260 222 197 205 196 201 200 202
242 245 249 248 250 254 260 270 273 276 277 280 272 273 247 233 229 212 218 227 232 229 211 203 225 219 225 235 249 258 270 290 313 276 262 248 233 220 206 196 205 215 224 221
244 244 245 249 251 256 263 264 269 277 281 275 273 260 221 227 219 209 218 230 232 227 198 206 213 217 220 224 238 257 267 280 295 300 256 235 224 206 191 202 216 212 220 225
243 244 246 248 253 256 259 267 273 277 278 278 265 242 232 224 213 209 220 224 230 225 202 209 206 215 218 213 227 252 269 274 246 261 253 230 231 222 203 204 209 210 222 217
243 244 245 248 250 258 263 269 273 278 277 277 254 242 229 209 208 216 217 225 218 226 210 217 204 216 220 209 216 236 262 277 247 242 252 242 244 236 220 206 194 209 231 228
240 245 249 250 253 256 262 266 274 277 277 265 239 235 218 218 212 224 214 205 218 227 210 210 202 214 223 215 216 222 239 257 264 242 238 249 248 255 253 217 205 203 208 207
239 238 242 248 252 256 257 263 269 274 271 256 238 239 257 227 197 212 200 211 220 216 193 192 201 221 227 221 219 219 220 229 236 255 250 232 249 281 284 219 200 205 207 214
233 233 237 244 247 253 260 265 269 269 254 250 250 255 219 204 205 206 200 207 214 220 206 203 205 238 228 218 225 221 218 221 237 250 268 258 243 232 280 168 197 205 214 221
231 235 233 240 244 245 253 258 263 258 241 242 246 234 215 205 208 208 209 211 199 206 210 206 221 240 234 222 228 228 226 226 229 238 264 265 254 236 209 208 205 200 207 217
227 232 229 237 240 246 250 252 239 243 247 245 231 230 235 211 216 204 210 210 207 208 205 222 240 241 235 227 229 229 230 231 231 228 245 251 238 237 231 219 219 225 230 231
216 225 226 229 236 241 243 242 242 240 238 244 234 210 191 221 209 208 209 208 207 205 206 214 222 229 227 222 227 229 233 238 237 240 240 243 240 232 226 226 222 223 228 234
239 239 233 231 232 237 241 239 226 231 240 237 230 225 200 202 218 211 208 209 215 211 212 215 222 232 228 221 225 227 232 237 238 240 247 251 251 247 238 229 228 231 238 244
243 243 241 240 241 236 231 233 223 229 235 236 227 217 205 190 211 221 210 212 220 213 214 222 223 232 231 228 233 239 250 258 255 257 258 261 265 267 265 257 253 250 250 253
247 248 245 244 246 247 239 232 229 236 234 238 228 220 215 155 170 202 209 216 219 221 221 222 215 221 232 231 230 235 239 240 244 249 251 255 256 254 256 257 258 260 261 263
246 251 247 239 247 247 242 234 241 241 241 243 231 222 210 214 213 182 199 214 222 223 220 219 219 221 221 225 230 243 253 256 259 255 244 248 250 251 251 255 255 256 257 259
246 248 247 241 243 244 250 242 243 271 244 249 248 233 220 222 214 212 198 191 210 210 224 218 223 227 222 227 239 249 249 254 264 262 256 255 256 261 261 261 262 261 260 261
244 243 246 245 244 244 245 232 244 252 241 248 243 226 223 220 208 216 221 211 199 205 220 225 232 227 230 237 241 251 253 260 269 269 267 262 261 262 262 264 260 264 267 267
243 243 243 247 248 244 218 211 232 217 211 264 241 235 225 228 210 212 223 221 228 226 231 237 237 240 245 246 250 251 254 262 265 262 260 262 265 268 270 266 265 261 260 260
247 246 244 248 251 243 213 203 212 206 237 237 216 235 234 231 215 220 220 222 227 227 217 219 227 235 239 241 248 258 265 270 271 270 267 262 261 259 263 267 264 270 267 264
244 250 249 247 246 231 211 199 196 217 224 200 198 212 209 205 218 219 221 221 226 227 231 233 233 240 248 254 255 258 265 266 267 267 269 268 266 264 263 265 266 267 266 268
223 240 237 237 232 214 201 189 152 164 173 190 197 211 214 206 213 216 223 213 216 224 238 241 244 248 249 250 263 263 263 261 262 268 274 277 275 274 273 273 272 272 272 273
277 234 252 251 224 204 200 200 247 201 212 174 188 198 210 216 220 227 227 223 231 235 235 235 239 243 245 252 257 259 260 260 265 272 276 277 277 280 282 284 284 285 284 283
267 208 248 164 173 188 201 213 249 234 238 244 201 202 204 210 220 224 224 222 225 221 223 228 230 243 249 254 257 259 265 265 265 268 271 274 277 279 281 280 279 279 279 279
240 227 217 216 233 184 212 219 242 241 231 232 251 253 252 239 231 228 233 243 246 248 251 250 251 252 256 261 264 265 267 268 266 269 272 273 274 274 274 273 273 276 277 279